Time,TemperatureF,DewpointF,PressureIn,WindDirection,WindDirectionDegrees,WindSpeedMPH,WindSpeedGustMPH,Humidity,HourlyPrecipIn,Conditions,Clouds,dailyrainin,SoftwareType,DateUTC
2013-03-25 00:00:00,29.2,21.6,29.46,North,0,0.0,0.0,73,0.00,,,0.00,WUHU216HW,2013-03-25 04:00:00,
2013-03-25 00:02:00,29.2,21.6,29.46,North,0,0.0,0.0,73,0.00,,,0.00,WUHU216HW,2013-03-25 04:02:00,
2013-03-25 00:07:00,29.0,21.4,29.46,North,0,0.0,0.0,73,0.00,,,0.00,WUHU216HW,2013-03-25 04:07:00,
2013-03-25 00:12:00,28.8,21.3,29.46,North,0,0.0,0.0,73,0.00,,,0.00,WUHU216HW,2013-03-25 04:12:00,
2013-03-25 00:17:00,28.6,21.1,29.46,North,0,0.0,0.0,73,0.00,,,0.00,WUHU216HW,2013-03-25 04:17:00,
2013-03-25 00:22:00,28.6,21.3,29.46,North,0,0.0,0.0,74,0.00,,,0.00,WUHU216HW,2013-03-25 04:22:00,
2013-03-25 00:27:00,28.4,21.5,29.46,North,0,0.0,0.0,75,0.00,,,0.00,WUHU216HW,2013-03-25 04:27:00,
2013-03-25 00:32:00,28.4,21.8,29.46,North,0,0.0,0.0,76,0.00,,,0.00,WUHU216HW,2013-03-25 04:32:00,
2013-03-25 00:37:00,28.3,21.6,29.46,North,0,0.0,0.0,76,0.00,,,0.00,WUHU216HW,2013-03-25 04:37:00,
2013-03-25 00:42:00,28.1,21.4,29.46,North,0,0.0,0.0,76,0.00,,,0.00,WUHU216HW,2013-03-25 04:42:00,
2013-03-25 00:47:00,28.1,21.2,29.46,North,0,0.0,0.0,75,0.00,,,0.00,WUHU216HW,2013-03-25 04:47:00,
2013-03-25 00:52:00,28.1,21.2,29.46,North,0,0.0,0.0,75,0.00,,,0.00,WUHU216HW,2013-03-25 04:52:00,
2013-03-25 00:57:00,27.9,21.0,29.46,North,0,0.0,0.0,75,0.00,,,0.00,WUHU216HW,2013-03-25 04:57:00,
2013-03-25 01:03:00,27.9,21.0,29.46,North,0,0.0,0.0,75,0.00,,,0.00,WUHU216HW,2013-03-25 05:03:00,
2013-03-25 01:08:00,27.7,20.8,29.45,North,0,0.0,0.0,75,0.00,,,0.00,WUHU216HW,2013-03-25 05:08:00,
2013-03-25 01:13:00,27.7,20.8,29.45,North,0,0.0,0.0,75,0.00,,,0.00,WUHU216HW,2013-03-25 05:13:00,
2013-03-25 01:18:00,27.7,21.1,29.45,North,0,0.0,0.0,76,0.00,,,0.00,WUHU216HW,2013-03-25 05:18:00,
2013-03-25 01:23:00,27.7,21.1,29.45,North,0,0.0,0.0,76,0.00,,,0.00,WUHU216HW,2013-03-25 05:23:00,
2013-03-25 01:28:00,27.5,20.9,29.45,North,0,0.0,0.0,76,0.00,,,0.00,WUHU216HW,2013-03-25 05:28:00,
2013-03-25 01:33:00,27.5,20.9,29.45,North,0,0.0,0.0,76,0.00,,,0.00,WUHU216HW,2013-03-25 05:33:00,
2013-03-25 01:38:00,27.5,20.9,29.45,North,0,0.0,0.0,76,0.00,,,0.00,WUHU216HW,2013-03-25 05:38:00,
2013-03-25 01:43:00,27.5,20.9,29.45,North,0,0.0,0.0,76,0.00,,,0.00,WUHU216HW,2013-03-25 05:43:00,
2013-03-25 01:48:00,27.4,21.1,29.45,North,0,0.0,0.0,77,0.00,,,0.00,WUHU216HW,2013-03-25 05:48:00,
2013-03-25 01:53:00,27.4,21.3,29.45,North,0,0.0,0.0,78,0.00,,,0.00,WUHU216HW,2013-03-25 05:53:00,
2013-03-25 01:58:00,27.4,21.3,29.45,North,0,0.0,0.0,78,0.00,,,0.00,WUHU216HW,2013-03-25 05:58:00,
2013-03-25 02:03:00,27.2,21.5,29.45,North,0,0.0,0.0,79,0.00,,,0.00,WUHU216HW,2013-03-25 06:03:00,
2013-03-25 02:08:00,27.2,21.2,29.44,North,0,0.0,0.0,78,0.00,,,0.00,WUHU216HW,2013-03-25 06:08:00,
2013-03-25 02:13:00,27.0,21.0,29.44,North,0,0.0,0.0,78,0.00,,,0.00,WUHU216HW,2013-03-25 06:13:00,
2013-03-25 02:18:00,27.2,21.5,29.44,North,0,0.0,0.0,79,0.00,,,0.00,WUHU216HW,2013-03-25 06:18:00,
2013-03-25 02:23:00,27.2,21.2,29.44,North,0,0.0,0.0,78,0.00,,,0.00,WUHU216HW,2013-03-25 06:23:00,
2013-03-25 02:28:00,27.2,21.2,29.44,North,0,0.0,0.0,78,0.00,,,0.00,WUHU216HW,2013-03-25 06:28:00,
2013-03-25 02:34:00,27.2,21.2,29.44,North,0,0.0,0.0,78,0.00,,,0.00,WUHU216HW,2013-03-25 06:34:00,
2013-03-25 02:39:00,27.2,21.2,29.44,North,0,0.0,0.0,78,0.00,,,0.00,WUHU216HW,2013-03-25 06:39:00,
2013-03-25 02:44:00,27.0,21.0,29.43,North,0,0.0,0.0,78,0.00,,,0.00,WUHU216HW,2013-03-25 06:44:00,
2013-03-25 02:49:00,27.0,21.0,29.43,North,0,0.0,0.0,78,0.00,,,0.00,WUHU216HW,2013-03-25 06:49:00,
2013-03-25 02:54:00,27.0,21.3,29.43,North,0,0.0,0.0,79,0.00,,,0.00,WUHU216HW,2013-03-25 06:54:00,
2013-03-25 02:59:00,26.8,21.2,29.43,North,0,0.0,0.0,79,0.00,,,0.00,WUHU216HW,2013-03-25 06:59:00,
2013-03-25 03:04:00,26.6,21.0,29.43,North,0,0.0,0.0,79,0.00,,,0.00,WUHU216HW,2013-03-25 07:04:00,
2013-03-25 03:09:00,26.5,20.8,29.43,North,0,0.0,0.0,79,0.00,,,0.00,WUHU216HW,2013-03-25 07:09:00,
2013-03-25 03:14:00,26.5,20.8,29.43,North,0,0.0,0.0,79,0.00,,,0.00,WUHU216HW,2013-03-25 07:14:00,
2013-03-25 03:19:00,26.3,20.6,29.43,North,0,0.0,0.0,79,0.00,,,0.00,WUHU216HW,2013-03-25 07:19:00,
2013-03-25 03:24:00,26.5,20.8,29.43,North,0,0.0,0.0,79,0.00,,,0.00,WUHU216HW,2013-03-25 07:24:00,
2013-03-25 03:29:00,26.3,20.6,29.43,North,0,0.0,0.0,79,0.00,,,0.00,WUHU216HW,2013-03-25 07:29:00,
2013-03-25 03:34:00,26.3,20.6,29.43,North,0,0.0,0.0,79,0.00,,,0.00,WUHU216HW,2013-03-25 07:34:00,
2013-03-25 03:39:00,26.3,20.6,29.43,North,0,0.0,0.0,79,0.00,,,0.00,WUHU216HW,2013-03-25 07:39:00,
2013-03-25 03:44:00,26.3,20.6,29.43,North,0,0.0,0.0,79,0.00,,,0.00,WUHU216HW,2013-03-25 07:44:00,
2013-03-25 03:49:00,26.3,20.6,29.43,North,0,0.0,0.0,79,0.00,,,0.00,WUHU216HW,2013-03-25 07:49:00,
2013-03-25 03:54:00,26.3,20.6,29.43,North,0,0.0,0.0,79,0.00,,,0.00,WUHU216HW,2013-03-25 07:54:00,
2013-03-25 03:59:00,26.3,20.6,29.43,North,0,0.0,0.0,79,0.00,,,0.00,WUHU216HW,2013-03-25 07:59:00,
2013-03-25 04:05:00,26.3,20.6,29.43,North,0,0.0,0.0,79,0.00,,,0.00,WUHU216HW,2013-03-25 08:05:00,
2013-03-25 04:10:00,26.3,20.6,29.42,North,0,0.0,0.0,79,0.00,,,0.00,WUHU216HW,2013-03-25 08:10:00,
2013-03-25 04:15:00,26.1,20.8,29.42,North,0,0.0,0.0,80,0.00,,,0.00,WUHU216HW,2013-03-25 08:15:00,
2013-03-25 04:20:00,26.1,20.8,29.42,North,0,0.0,0.0,80,0.00,,,0.00,WUHU216HW,2013-03-25 08:20:00,
2013-03-25 04:25:00,25.9,20.9,29.42,North,0,0.0,0.0,81,0.00,,,0.00,WUHU216HW,2013-03-25 08:25:00,
2013-03-25 04:30:00,25.9,20.9,29.42,North,0,0.0,0.0,81,0.00,,,0.00,WUHU216HW,2013-03-25 08:30:00,
2013-03-25 04:35:00,25.9,20.6,29.41,North,0,0.0,0.0,80,0.00,,,0.00,WUHU216HW,2013-03-25 08:35:00,
2013-03-25 04:40:00,25.9,20.6,29.41,North,0,0.0,0.0,80,0.00,,,0.00,WUHU216HW,2013-03-25 08:40:00,
2013-03-25 04:45:00,25.7,20.4,29.41,North,0,0.0,0.0,80,0.00,,,0.00,WUHU216HW,2013-03-25 08:45:00,
2013-03-25 04:50:00,25.6,20.3,29.41,North,0,0.0,0.0,80,0.00,,,0.00,WUHU216HW,2013-03-25 08:50:00,
2013-03-25 04:55:00,25.6,20.3,29.41,North,0,0.0,0.0,80,0.00,,,0.00,WUHU216HW,2013-03-25 08:55:00,
2013-03-25 05:01:00,25.6,20.3,29.41,North,0,0.0,0.0,80,0.00,,,0.00,WUHU216HW,2013-03-25 09:01:00,
2013-03-25 05:06:00,25.6,20.3,29.41,North,0,0.0,0.0,80,0.00,,,0.00,WUHU216HW,2013-03-25 09:06:00,
2013-03-25 05:11:00,25.6,20.3,29.41,North,0,0.0,0.0,80,0.00,,,0.00,WUHU216HW,2013-03-25 09:11:00,
2013-03-25 05:16:00,25.6,20.3,29.41,North,0,0.0,0.0,80,0.00,,,0.00,WUHU216HW,2013-03-25 09:16:00,
2013-03-25 05:21:00,25.6,20.3,29.41,North,0,0.0,0.0,80,0.00,,,0.00,WUHU216HW,2013-03-25 09:21:00,
2013-03-25 05:27:00,25.6,20.3,29.41,North,0,0.0,0.0,80,0.00,,,0.00,WUHU216HW,2013-03-25 09:27:00,
2013-03-25 05:32:00,25.6,20.8,29.41,North,0,0.0,0.0,82,0.00,,,0.00,WUHU216HW,2013-03-25 09:32:00,
2013-03-25 05:37:00,25.6,20.8,29.41,North,0,0.0,0.0,82,0.00,,,0.00,WUHU216HW,2013-03-25 09:37:00,
2013-03-25 05:42:00,25.6,20.8,29.41,North,0,0.0,0.0,82,0.00,,,0.00,WUHU216HW,2013-03-25 09:42:00,
2013-03-25 05:47:00,25.6,20.8,29.41,North,0,0.0,0.0,82,0.00,,,0.00,WUHU216HW,2013-03-25 09:47:00,
2013-03-25 05:52:00,25.6,20.8,29.41,North,0,0.0,0.0,82,0.00,,,0.00,WUHU216HW,2013-03-25 09:52:00,
2013-03-25 05:57:00,25.6,20.8,29.41,North,0,0.0,0.0,82,0.00,,,0.00,WUHU216HW,2013-03-25 09:57:00,
2013-03-25 06:02:00,25.4,20.3,29.41,North,0,0.0,0.0,81,0.00,,,0.00,WUHU216HW,2013-03-25 10:02:00,
2013-03-25 06:07:00,25.4,20.3,29.41,North,0,0.0,0.0,81,0.00,,,0.00,WUHU216HW,2013-03-25 10:07:00,
2013-03-25 06:12:00,25.6,20.5,29.41,North,0,0.0,0.0,81,0.00,,,0.00,WUHU216HW,2013-03-25 10:12:00,
2013-03-25 06:17:00,25.6,20.5,29.41,North,0,0.0,0.0,81,0.00,,,0.00,WUHU216HW,2013-03-25 10:17:00,
2013-03-25 06:22:00,25.4,20.7,29.40,North,0,0.0,0.0,82,0.00,,,0.00,WUHU216HW,2013-03-25 10:22:00,
2013-03-25 06:28:00,25.4,20.7,29.40,North,0,0.0,0.0,82,0.00,,,0.00,WUHU216HW,2013-03-25 10:28:00,
2013-03-25 06:33:00,25.4,20.7,29.40,North,0,0.0,0.0,82,0.00,,,0.00,WUHU216HW,2013-03-25 10:33:00,
2013-03-25 06:38:00,25.4,20.7,29.40,North,0,0.0,0.0,82,0.00,,,0.00,WUHU216HW,2013-03-25 10:38:00,
2013-03-25 06:43:00,25.4,20.7,29.40,North,0,0.0,0.0,82,0.00,,,0.00,WUHU216HW,2013-03-25 10:43:00,
2013-03-25 06:48:00,25.2,20.5,29.40,North,0,0.0,0.0,82,0.00,,,0.00,WUHU216HW,2013-03-25 10:48:00,
2013-03-25 06:53:00,25.2,20.5,29.40,North,0,0.0,0.0,82,0.00,,,0.00,WUHU216HW,2013-03-25 10:53:00,
2013-03-25 06:58:00,25.4,20.7,29.40,North,0,0.0,0.0,82,0.00,,,0.00,WUHU216HW,2013-03-25 10:58:00,
2013-03-25 07:03:00,25.4,20.7,29.40,North,0,0.0,0.0,82,0.00,,,0.00,WUHU216HW,2013-03-25 11:03:00,
2013-03-25 07:08:00,25.4,20.7,29.40,North,0,0.0,0.0,82,0.00,,,0.00,WUHU216HW,2013-03-25 11:08:00,
2013-03-25 07:13:00,25.4,20.7,29.40,North,0,0.0,0.0,82,0.00,,,0.00,WUHU216HW,2013-03-25 11:13:00,
2013-03-25 07:18:00,25.6,20.8,29.40,North,0,0.0,0.0,82,0.00,,,0.00,WUHU216HW,2013-03-25 11:18:00,
2013-03-25 07:23:00,25.6,20.8,29.40,North,0,0.0,0.0,82,0.00,,,0.00,WUHU216HW,2013-03-25 11:23:00,
2013-03-25 07:28:00,25.7,21.0,29.40,North,0,0.0,0.0,82,0.00,,,0.00,WUHU216HW,2013-03-25 11:28:00,
2013-03-25 07:33:00,25.9,21.2,29.40,North,0,0.0,0.0,82,0.00,,,0.00,WUHU216HW,2013-03-25 11:33:00,
2013-03-25 07:39:00,26.3,21.8,29.40,North,0,0.0,0.0,83,0.00,,,0.00,WUHU216HW,2013-03-25 11:39:00,
2013-03-25 07:44:00,26.5,22.0,29.40,North,0,0.0,0.0,83,0.00,,,0.00,WUHU216HW,2013-03-25 11:44:00,
2013-03-25 07:49:00,26.6,22.2,29.40,North,0,0.0,0.0,83,0.00,,,0.00,WUHU216HW,2013-03-25 11:49:00,
2013-03-25 07:54:00,27.0,22.5,29.40,North,0,0.0,0.0,83,0.00,,,0.00,WUHU216HW,2013-03-25 11:54:00,
2013-03-25 07:59:00,27.5,23.1,29.41,North,0,0.0,0.0,83,0.00,,,0.00,WUHU216HW,2013-03-25 11:59:00,
2013-03-25 08:04:00,28.1,23.6,29.41,North,0,0.0,0.0,83,0.00,,,0.00,WUHU216HW,2013-03-25 12:04:00,
2013-03-25 08:09:00,28.4,23.6,29.41,North,0,0.0,0.0,82,0.00,,,0.00,WUHU216HW,2013-03-25 12:09:00,
2013-03-25 08:14:00,28.8,23.9,29.41,North,0,0.0,0.0,82,0.00,,,0.00,WUHU216HW,2013-03-25 12:14:00,
2013-03-25 08:19:00,29.3,24.5,29.41,North,0,0.0,0.0,82,0.00,,,0.00,WUHU216HW,2013-03-25 12:19:00,
2013-03-25 08:24:00,29.9,24.8,29.41,North,0,0.0,0.0,81,0.00,,,0.00,WUHU216HW,2013-03-25 12:24:00,
2013-03-25 08:29:00,30.2,25.1,29.41,North,0,0.0,0.0,81,0.00,,,0.00,WUHU216HW,2013-03-25 12:29:00,
2013-03-25 08:34:00,30.6,25.2,29.41,North,0,0.0,0.0,80,0.00,,,0.00,WUHU216HW,2013-03-25 12:34:00,
2013-03-25 08:39:00,31.0,25.6,29.41,North,0,0.0,0.0,80,0.00,,,0.00,WUHU216HW,2013-03-25 12:39:00,
2013-03-25 08:44:00,31.3,25.6,29.41,North,0,0.0,0.0,79,0.00,,,0.00,WUHU216HW,2013-03-25 12:44:00,
2013-03-25 08:49:00,31.7,25.7,29.41,North,0,0.0,0.0,78,0.00,,,0.00,WUHU216HW,2013-03-25 12:49:00,
2013-03-25 08:54:00,32.0,26.0,29.41,North,0,0.0,0.0,78,0.00,,,0.00,WUHU216HW,2013-03-25 12:54:00,
2013-03-25 09:00:00,32.4,26.6,29.40,North,0,0.0,0.0,79,0.00,,,0.00,WUHU216HW,2013-03-25 13:00:00,
2013-03-25 09:05:00,32.9,26.8,29.40,North,0,0.0,0.0,78,0.00,,,0.00,WUHU216HW,2013-03-25 13:05:00,
2013-03-25 09:10:00,33.5,27.0,29.40,North,0,0.0,0.0,77,0.00,,,0.00,WUHU216HW,2013-03-25 13:10:00,
2013-03-25 09:15:00,34.0,27.5,29.40,North,0,0.0,0.0,77,0.00,,,0.00,WUHU216HW,2013-03-25 13:15:00,
2013-03-25 09:20:00,34.6,27.7,29.40,North,0,0.0,0.0,76,0.00,,,0.00,WUHU216HW,2013-03-25 13:20:00,
2013-03-25 09:25:00,34.9,27.7,29.40,North,0,0.0,0.0,75,0.00,,,0.00,WUHU216HW,2013-03-25 13:25:00,
2013-03-25 09:30:00,35.3,27.7,29.40,North,0,0.0,0.0,74,0.00,,,0.00,WUHU216HW,2013-03-25 13:30:00,
2013-03-25 09:35:00,35.6,27.8,29.39,North,0,0.0,0.0,73,0.00,,,0.00,WUHU216HW,2013-03-25 13:35:00,
2013-03-25 09:40:00,36.4,28.5,29.39,North,0,0.0,0.0,73,0.00,,,0.00,WUHU216HW,2013-03-25 13:40:00,
2013-03-25 09:45:00,37.1,29.5,29.39,North,0,0.0,0.0,74,0.00,,,0.00,WUHU216HW,2013-03-25 13:45:00,
2013-03-25 09:50:00,37.8,29.3,29.39,North,0,0.0,0.0,71,0.00,,,0.00,WUHU216HW,2013-03-25 13:50:00,
2013-03-25 09:55:00,38.7,30.1,29.39,North,0,0.0,0.0,71,0.00,,,0.00,WUHU216HW,2013-03-25 13:55:00,
2013-03-25 10:01:00,39.2,29.5,29.38,North,0,0.0,0.0,68,0.00,,,0.00,WUHU216HW,2013-03-25 14:01:00,
2013-03-25 10:06:00,39.6,30.3,29.38,North,0,0.0,0.0,69,0.00,,,0.00,WUHU216HW,2013-03-25 14:06:00,
2013-03-25 10:11:00,40.3,31.0,29.38,North,0,0.0,0.0,69,0.00,,,0.00,WUHU216HW,2013-03-25 14:11:00,
2013-03-25 10:16:00,41.4,31.7,29.38,North,0,0.0,0.0,68,0.00,,,0.00,WUHU216HW,2013-03-25 14:16:00,
2013-03-25 10:21:00,42.3,32.5,29.38,North,0,0.0,0.0,68,0.00,,,0.00,WUHU216HW,2013-03-25 14:21:00,
2013-03-25 10:26:00,42.7,32.5,29.38,North,0,0.0,0.0,67,0.00,,,0.00,WUHU216HW,2013-03-25 14:26:00,
2013-03-25 10:31:00,42.8,32.2,29.37,North,0,0.0,0.0,66,0.00,,,0.00,WUHU216HW,2013-03-25 14:31:00,
2013-03-25 10:36:00,42.8,31.5,29.37,North,0,0.0,0.0,64,0.00,,,0.00,WUHU216HW,2013-03-25 14:36:00,
2013-03-25 10:41:00,42.8,31.5,29.37,North,0,0.0,0.0,64,0.00,,,0.00,WUHU216HW,2013-03-25 14:41:00,
2013-03-25 10:46:00,43.2,31.4,29.36,North,0,0.0,0.0,63,0.00,,,0.00,WUHU216HW,2013-03-25 14:46:00,
2013-03-25 10:52:00,43.2,31.4,29.36,North,0,0.0,0.0,63,0.00,,,0.00,WUHU216HW,2013-03-25 14:52:00,
2013-03-25 10:57:00,43.4,31.6,29.36,North,0,0.0,0.0,63,0.00,,,0.00,WUHU216HW,2013-03-25 14:57:00,
2013-03-25 11:02:00,43.6,31.8,29.36,North,0,0.0,0.0,63,0.00,,,0.00,WUHU216HW,2013-03-25 15:02:00,
2013-03-25 11:07:00,43.9,31.8,29.35,North,0,0.0,0.0,62,0.00,,,0.00,WUHU216HW,2013-03-25 15:07:00,
2013-03-25 11:12:00,45.0,32.8,29.35,North,0,0.0,0.0,62,0.00,,,0.00,WUHU216HW,2013-03-25 15:12:00,
2013-03-25 11:17:00,45.5,32.0,29.35,North,0,0.0,0.0,59,0.00,,,0.00,WUHU216HW,2013-03-25 15:17:00,
2013-03-25 11:22:00,46.1,31.6,29.35,North,0,0.0,0.0,57,0.00,,,0.00,WUHU216HW,2013-03-25 15:22:00,
2013-03-25 11:27:00,46.6,31.2,29.35,North,0,0.0,0.0,55,0.00,,,0.00,WUHU216HW,2013-03-25 15:27:00,
2013-03-25 11:32:00,46.6,31.2,29.34,North,0,0.0,0.0,55,0.00,,,0.00,WUHU216HW,2013-03-25 15:32:00,
2013-03-25 11:37:00,46.4,31.1,29.34,North,0,0.0,0.0,55,0.00,,,0.00,WUHU216HW,2013-03-25 15:37:00,
2013-03-25 11:42:00,46.1,30.7,29.34,North,0,0.0,0.0,55,0.00,,,0.00,WUHU216HW,2013-03-25 15:42:00,
2013-03-25 11:47:00,46.1,30.2,29.34,North,0,0.0,0.0,54,0.00,,,0.00,WUHU216HW,2013-03-25 15:47:00,
2013-03-25 11:52:00,45.7,30.9,29.34,North,0,0.0,0.0,56,0.00,,,0.00,WUHU216HW,2013-03-25 15:52:00,
2013-03-25 11:57:00,46.1,30.7,29.33,North,0,0.0,0.0,55,0.00,,,0.00,WUHU216HW,2013-03-25 15:57:00,
2013-03-25 12:03:00,45.7,30.0,29.33,North,0,0.0,0.0,54,0.00,,,0.00,WUHU216HW,2013-03-25 16:03:00,
2013-03-25 12:08:00,45.7,29.5,29.33,North,0,0.0,0.0,53,0.00,,,0.00,WUHU216HW,2013-03-25 16:08:00,
2013-03-25 12:13:00,46.1,30.2,29.33,North,0,0.0,0.0,54,0.00,,,0.00,WUHU216HW,2013-03-25 16:13:00,
2013-03-25 12:18:00,46.1,30.2,29.33,North,0,0.0,0.0,54,0.00,,,0.00,WUHU216HW,2013-03-25 16:18:00,
2013-03-25 12:23:00,46.1,30.2,29.33,North,0,0.0,0.0,54,0.00,,,0.00,WUHU216HW,2013-03-25 16:23:00,
2013-03-25 12:28:00,46.3,30.0,29.32,North,0,0.0,0.0,53,0.00,,,0.00,WUHU216HW,2013-03-25 16:28:00,
2013-03-25 12:33:00,45.9,30.2,29.32,North,0,0.0,0.0,54,0.00,,,0.00,WUHU216HW,2013-03-25 16:33:00,
2013-03-25 12:38:00,45.5,29.8,29.32,North,0,0.0,0.0,54,0.00,,,0.00,WUHU216HW,2013-03-25 16:38:00,
2013-03-25 12:43:00,45.5,30.2,29.32,North,0,0.0,0.0,55,0.00,,,0.00,WUHU216HW,2013-03-25 16:43:00,
2013-03-25 12:48:00,45.4,29.6,29.31,North,0,0.0,0.0,54,0.00,,,0.00,WUHU216HW,2013-03-25 16:48:00,
2013-03-25 12:53:00,45.5,30.7,29.31,North,0,0.0,0.0,56,0.00,,,0.00,WUHU216HW,2013-03-25 16:53:00,
2013-03-25 12:58:00,45.4,30.1,29.31,North,0,0.0,0.0,55,0.00,,,0.00,WUHU216HW,2013-03-25 16:58:00,
2013-03-25 13:03:00,45.4,30.1,29.31,North,0,0.0,0.0,55,0.00,,,0.00,WUHU216HW,2013-03-25 17:03:00,
2013-03-25 13:08:00,45.5,30.7,29.31,North,0,0.0,0.0,56,0.00,,,0.00,WUHU216HW,2013-03-25 17:08:00,
2013-03-25 13:13:00,45.5,29.8,29.31,North,0,0.0,0.0,54,0.00,,,0.00,WUHU216HW,2013-03-25 17:13:00,
2013-03-25 13:18:00,45.0,29.8,29.30,North,0,0.0,0.0,55,0.00,,,0.00,WUHU216HW,2013-03-25 17:18:00,
2013-03-25 13:23:00,44.8,28.7,29.30,North,0,0.0,0.0,53,0.00,,,0.00,WUHU216HW,2013-03-25 17:23:00,
2013-03-25 13:28:00,44.6,28.5,29.30,North,0,0.0,0.0,53,0.00,,,0.00,WUHU216HW,2013-03-25 17:28:00,
2013-03-25 13:33:00,44.5,28.4,29.30,North,0,0.0,0.0,53,0.00,,,0.00,WUHU216HW,2013-03-25 17:33:00,
2013-03-25 13:38:00,44.5,28.4,29.30,North,0,0.0,0.0,53,0.00,,,0.00,WUHU216HW,2013-03-25 17:38:00,
2013-03-25 13:44:00,44.3,28.2,29.30,North,0,0.0,0.0,53,0.00,,,0.00,WUHU216HW,2013-03-25 17:44:00,
2013-03-25 13:49:00,44.3,28.2,29.30,North,0,0.0,0.0,53,0.00,,,0.00,WUHU216HW,2013-03-25 17:49:00,
2013-03-25 13:54:00,44.3,28.2,29.30,North,0,0.0,0.0,53,0.00,,,0.00,WUHU216HW,2013-03-25 17:54:00,
2013-03-25 13:59:00,43.7,27.3,29.30,North,0,0.0,0.0,52,0.00,,,0.00,WUHU216HW,2013-03-25 17:59:00,
2013-03-25 14:04:00,43.6,27.6,29.30,North,0,0.0,0.0,53,0.00,,,0.00,WUHU216HW,2013-03-25 18:04:00,
2013-03-25 14:09:00,43.6,27.6,29.30,North,0,0.0,0.0,53,0.00,,,0.00,WUHU216HW,2013-03-25 18:09:00,
2013-03-25 14:14:00,43.6,27.6,29.30,North,0,0.0,0.0,53,0.00,,,0.00,WUHU216HW,2013-03-25 18:14:00,
2013-03-25 14:19:00,43.6,27.6,29.29,North,0,0.0,0.0,53,0.00,,,0.00,WUHU216HW,2013-03-25 18:19:00,
2013-03-25 14:24:00,43.7,27.7,29.29,North,0,0.0,0.0,53,0.00,,,0.00,WUHU216HW,2013-03-25 18:24:00,
2013-03-25 14:29:00,44.1,28.0,29.29,North,0,0.0,0.0,53,0.00,,,0.00,WUHU216HW,2013-03-25 18:29:00,
2013-03-25 14:34:00,44.3,28.2,29.28,North,0,0.0,0.0,53,0.00,,,0.00,WUHU216HW,2013-03-25 18:34:00,
2013-03-25 14:39:00,44.5,27.9,29.28,North,0,0.0,0.0,52,0.00,,,0.00,WUHU216HW,2013-03-25 18:39:00,
2013-03-25 14:44:00,44.8,28.7,29.28,North,0,0.0,0.0,53,0.00,,,0.00,WUHU216HW,2013-03-25 18:44:00,
2013-03-25 14:49:00,45.2,29.0,29.28,North,0,0.0,0.0,53,0.00,,,0.00,WUHU216HW,2013-03-25 18:49:00,
2013-03-25 14:54:00,45.2,28.1,29.27,North,0,0.0,0.0,51,0.00,,,0.00,WUHU216HW,2013-03-25 18:54:00,
2013-03-25 15:00:00,45.0,28.0,29.27,North,0,0.0,0.0,51,0.00,,,0.00,WUHU216HW,2013-03-25 19:00:00,
2013-03-25 15:05:00,44.8,27.8,29.27,North,0,0.0,0.0,51,0.00,,,0.00,WUHU216HW,2013-03-25 19:05:00,
2013-03-25 15:10:00,45.0,28.5,29.26,North,0,0.0,0.0,52,0.00,,,0.00,WUHU216HW,2013-03-25 19:10:00,
2013-03-25 15:15:00,45.0,28.0,29.26,North,0,0.0,0.0,51,0.00,,,0.00,WUHU216HW,2013-03-25 19:15:00,
2013-03-25 15:20:00,45.0,28.5,29.26,North,0,0.0,0.0,52,0.00,,,0.00,WUHU216HW,2013-03-25 19:20:00,
2013-03-25 15:25:00,45.0,28.5,29.26,North,0,0.0,0.0,52,0.00,,,0.00,WUHU216HW,2013-03-25 19:25:00,
2013-03-25 15:30:00,44.6,28.1,29.26,North,0,0.0,0.0,52,0.00,,,0.00,WUHU216HW,2013-03-25 19:30:00,
2013-03-25 15:35:00,44.1,27.5,29.25,North,0,0.0,0.0,52,0.00,,,0.00,WUHU216HW,2013-03-25 19:35:00,
2013-03-25 15:40:00,43.6,27.6,29.25,North,0,0.0,0.0,53,0.00,,,0.00,WUHU216HW,2013-03-25 19:40:00,
2013-03-25 15:45:00,43.2,27.6,29.25,North,0,0.0,0.0,54,0.00,,,0.00,WUHU216HW,2013-03-25 19:45:00,
2013-03-25 15:50:00,43.0,27.9,29.25,North,0,0.0,0.0,55,0.00,,,0.00,WUHU216HW,2013-03-25 19:50:00,
2013-03-25 15:55:00,43.0,27.9,29.24,North,0,0.0,0.0,55,0.00,,,0.00,WUHU216HW,2013-03-25 19:55:00,
2013-03-25 16:00:00,42.8,28.2,29.24,North,0,0.0,0.0,56,0.00,,,0.00,WUHU216HW,2013-03-25 20:00:00,
2013-03-25 16:05:00,42.8,28.6,29.24,North,0,0.0,0.0,57,0.00,,,0.00,WUHU216HW,2013-03-25 20:05:00,
2013-03-25 16:10:00,43.0,28.4,29.23,North,0,0.0,0.0,56,0.00,,,0.00,WUHU216HW,2013-03-25 20:10:00,
2013-03-25 16:15:00,43.2,28.5,29.23,North,0,0.0,0.0,56,0.00,,,0.00,WUHU216HW,2013-03-25 20:15:00,
2013-03-25 16:20:00,43.0,28.4,29.22,North,0,0.0,0.0,56,0.00,,,0.00,WUHU216HW,2013-03-25 20:20:00,
2013-03-25 16:25:00,43.0,28.4,29.22,North,0,0.0,0.0,56,0.00,,,0.00,WUHU216HW,2013-03-25 20:25:00,
2013-03-25 16:30:00,43.0,28.4,29.22,North,0,0.0,0.0,56,0.00,,,0.00,WUHU216HW,2013-03-25 20:30:00,
2013-03-25 16:35:00,42.7,28.9,29.22,North,0,0.0,0.0,58,0.00,,,0.00,WUHU216HW,2013-03-25 20:35:00,
2013-03-25 16:41:00,42.5,28.7,29.23,North,0,0.0,0.0,58,0.00,,,0.00,WUHU216HW,2013-03-25 20:41:00,
2013-03-25 16:46:00,42.5,28.7,29.23,North,0,0.0,0.0,58,0.00,,,0.00,WUHU216HW,2013-03-25 20:46:00,
2013-03-25 16:51:00,42.1,28.4,29.23,North,0,0.0,0.0,58,0.00,,,0.00,WUHU216HW,2013-03-25 20:51:00,
2013-03-25 16:56:00,42.1,28.8,29.23,North,0,0.0,0.0,59,0.00,,,0.00,WUHU216HW,2013-03-25 20:56:00,
2013-03-25 17:01:00,41.9,29.1,29.23,North,0,0.0,0.0,60,0.00,,,0.00,WUHU216HW,2013-03-25 21:01:00,
2013-03-25 17:06:00,41.8,28.9,29.23,North,0,0.0,0.0,60,0.00,,,0.00,WUHU216HW,2013-03-25 21:06:00,
2013-03-25 17:12:00,41.6,28.7,29.23,North,0,0.0,0.0,60,0.00,,,0.00,WUHU216HW,2013-03-25 21:12:00,
2013-03-25 17:17:00,41.4,29.0,29.23,North,0,0.0,0.0,61,0.00,,,0.00,WUHU216HW,2013-03-25 21:17:00,
2013-03-25 17:22:00,41.4,29.0,29.24,North,0,0.0,0.0,61,0.00,,,0.00,WUHU216HW,2013-03-25 21:22:00,
2013-03-25 17:27:00,41.4,29.0,29.23,North,0,0.0,0.0,61,0.00,,,0.00,WUHU216HW,2013-03-25 21:27:00,
2013-03-25 17:32:00,41.4,29.0,29.23,North,0,0.0,0.0,61,0.00,,,0.00,WUHU216HW,2013-03-25 21:32:00,
2013-03-25 17:37:00,41.2,28.8,29.24,North,0,0.0,0.0,61,0.00,,,0.00,WUHU216HW,2013-03-25 21:37:00,
2013-03-25 17:42:00,41.0,28.6,29.24,North,0,0.0,0.0,61,0.00,,,0.00,WUHU216HW,2013-03-25 21:42:00,
2013-03-25 17:47:00,41.0,29.0,29.24,North,0,0.0,0.0,62,0.00,,,0.00,WUHU216HW,2013-03-25 21:47:00,
2013-03-25 17:52:00,41.0,29.0,29.24,North,0,0.0,0.0,62,0.00,,,0.00,WUHU216HW,2013-03-25 21:52:00,
2013-03-25 17:57:00,41.0,29.0,29.24,North,0,0.0,0.0,62,0.00,,,0.00,WUHU216HW,2013-03-25 21:57:00,
2013-03-25 18:02:00,40.9,28.8,29.24,North,0,0.0,0.0,62,0.00,,,0.00,WUHU216HW,2013-03-25 22:02:00,
2013-03-25 18:07:00,40.9,28.8,29.25,North,0,0.0,0.0,62,0.00,,,0.00,WUHU216HW,2013-03-25 22:07:00,
2013-03-25 18:13:00,40.7,28.6,29.25,North,0,0.0,0.0,62,0.00,,,0.00,WUHU216HW,2013-03-25 22:13:00,
2013-03-25 18:18:00,40.7,28.6,29.25,North,0,0.0,0.0,62,0.00,,,0.00,WUHU216HW,2013-03-25 22:18:00,
2013-03-25 18:23:00,40.5,28.4,29.24,North,0,0.0,0.0,62,0.00,,,0.00,WUHU216HW,2013-03-25 22:23:00,
2013-03-25 18:28:00,40.5,28.9,29.25,North,0,0.0,0.0,63,0.00,,,0.00,WUHU216HW,2013-03-25 22:28:00,
2013-03-25 18:33:00,40.3,28.7,29.25,North,0,0.0,0.0,63,0.00,,,0.00,WUHU216HW,2013-03-25 22:33:00,
2013-03-25 18:38:00,40.1,28.5,29.25,North,0,0.0,0.0,63,0.00,,,0.00,WUHU216HW,2013-03-25 22:38:00,
2013-03-25 18:43:00,40.0,28.7,29.25,North,0,0.0,0.0,64,0.00,,,0.00,WUHU216HW,2013-03-25 22:43:00,
2013-03-25 18:48:00,40.0,29.1,29.26,North,0,0.0,0.0,65,0.00,,,0.00,WUHU216HW,2013-03-25 22:48:00,
2013-03-25 18:53:00,40.0,28.7,29.26,North,0,0.0,0.0,64,0.00,,,0.00,WUHU216HW,2013-03-25 22:53:00,
2013-03-25 18:58:00,39.8,28.5,29.26,North,0,0.0,0.0,64,0.00,,,0.00,WUHU216HW,2013-03-25 22:58:00,
2013-03-25 19:03:00,39.6,28.7,29.26,North,0,0.0,0.0,65,0.00,,,0.00,WUHU216HW,2013-03-25 23:03:00,
2013-03-25 19:08:00,39.4,28.5,29.26,North,0,0.0,0.0,65,0.00,,,0.00,WUHU216HW,2013-03-25 23:08:00,
2013-03-25 19:13:00,39.2,28.4,29.26,North,0,0.0,0.0,65,0.00,,,0.00,WUHU216HW,2013-03-25 23:13:00,
2013-03-25 19:18:00,39.2,28.7,29.26,North,0,0.0,0.0,66,0.00,,,0.00,WUHU216HW,2013-03-25 23:18:00,
2013-03-25 19:23:00,39.2,28.7,29.26,North,0,0.0,0.0,66,0.00,,,0.00,WUHU216HW,2013-03-25 23:23:00,
2013-03-25 19:28:00,39.2,29.1,29.26,North,0,0.0,0.0,67,0.00,,,0.00,WUHU216HW,2013-03-25 23:28:00,
2013-03-25 19:33:00,39.2,29.1,29.26,North,0,0.0,0.0,67,0.00,,,0.00,WUHU216HW,2013-03-25 23:33:00,
2013-03-25 19:39:00,39.1,29.0,29.26,North,0,0.0,0.0,67,0.00,,,0.00,WUHU216HW,2013-03-25 23:39:00,
2013-03-25 19:44:00,39.1,28.5,29.26,North,0,0.0,0.0,66,0.00,,,0.00,WUHU216HW,2013-03-25 23:44:00,
2013-03-25 19:49:00,38.9,28.8,29.26,North,0,0.0,0.0,67,0.00,,,0.00,WUHU216HW,2013-03-25 23:49:00,
2013-03-25 19:54:00,38.9,28.8,29.26,North,0,0.0,0.0,67,0.00,,,0.00,WUHU216HW,2013-03-25 23:54:00,
2013-03-25 19:59:00,38.7,28.6,29.26,North,0,0.0,0.0,67,0.00,,,0.00,WUHU216HW,2013-03-25 23:59:00,
2013-03-25 20:04:00,38.7,28.6,29.27,North,0,0.0,0.0,67,0.00,,,0.00,WUHU216HW,2013-03-26 00:04:00,
2013-03-25 20:09:00,38.5,28.4,29.27,North,0,0.0,0.0,67,0.00,,,0.00,WUHU216HW,2013-03-26 00:09:00,
2013-03-25 20:14:00,38.5,28.4,29.27,North,0,0.0,0.0,67,0.00,,,0.00,WUHU216HW,2013-03-26 00:14:00,
2013-03-25 20:19:00,38.5,28.4,29.27,North,0,0.0,0.0,67,0.00,,,0.00,WUHU216HW,2013-03-26 00:19:00,
2013-03-25 20:24:00,38.3,28.3,29.27,North,0,0.0,0.0,67,0.00,,,0.00,WUHU216HW,2013-03-26 00:24:00,
2013-03-25 20:29:00,38.3,28.3,29.27,North,0,0.0,0.0,67,0.00,,,0.00,WUHU216HW,2013-03-26 00:29:00,
2013-03-25 20:34:00,38.2,28.2,29.28,North,0,0.0,0.0,67,0.00,,,0.00,WUHU216HW,2013-03-26 00:34:00,
2013-03-25 20:39:00,38.2,28.2,29.28,North,0,0.0,0.0,67,0.00,,,0.00,WUHU216HW,2013-03-26 00:39:00,
2013-03-25 20:44:00,38.0,28.0,29.28,North,0,0.0,0.0,67,0.00,,,0.00,WUHU216HW,2013-03-26 00:44:00,
2013-03-25 20:49:00,37.8,27.8,29.28,North,0,0.0,0.0,67,0.00,,,0.00,WUHU216HW,2013-03-26 00:49:00,
2013-03-25 20:55:00,37.8,27.8,29.28,North,0,0.0,0.0,67,0.00,,,0.00,WUHU216HW,2013-03-26 00:55:00,
2013-03-25 21:00:00,37.6,27.6,29.28,North,0,0.0,0.0,67,0.00,,,0.00,WUHU216HW,2013-03-26 01:00:00,
2013-03-25 21:05:00,37.4,27.9,29.28,North,0,0.0,0.0,68,0.00,,,0.00,WUHU216HW,2013-03-26 01:05:00,
2013-03-25 21:10:00,37.3,27.7,29.28,North,0,0.0,0.0,68,0.00,,,0.00,WUHU216HW,2013-03-26 01:10:00,
2013-03-25 21:15:00,37.1,27.9,29.28,North,0,0.0,0.0,69,0.00,,,0.00,WUHU216HW,2013-03-26 01:15:00,
2013-03-25 21:20:00,37.1,27.9,29.28,North,0,0.0,0.0,69,0.00,,,0.00,WUHU216HW,2013-03-26 01:20:00,
2013-03-25 21:25:00,36.9,27.7,29.28,North,0,0.0,0.0,69,0.00,,,0.00,WUHU216HW,2013-03-26 01:25:00,
2013-03-25 21:30:00,36.7,27.9,29.28,North,0,0.0,0.0,70,0.00,,,0.00,WUHU216HW,2013-03-26 01:30:00,
2013-03-25 21:35:00,36.4,27.9,29.28,North,0,0.0,0.0,71,0.00,,,0.00,WUHU216HW,2013-03-26 01:35:00,
2013-03-25 21:40:00,36.4,27.9,29.27,North,0,0.0,0.0,71,0.00,,,0.00,WUHU216HW,2013-03-26 01:40:00,
2013-03-25 21:45:00,36.2,27.7,29.27,North,0,0.0,0.0,71,0.00,,,0.00,WUHU216HW,2013-03-26 01:45:00,
2013-03-25 21:50:00,36.0,27.6,29.27,North,0,0.0,0.0,71,0.00,,,0.00,WUHU216HW,2013-03-26 01:50:00,
2013-03-25 21:55:00,36.0,27.8,29.27,North,0,0.0,0.0,72,0.00,,,0.00,WUHU216HW,2013-03-26 01:55:00,
2013-03-25 22:00:00,35.8,27.6,29.27,North,0,0.0,0.0,72,0.00,,,0.00,WUHU216HW,2013-03-26 02:00:00,
2013-03-25 22:05:00,35.8,27.6,29.27,North,0,0.0,0.0,72,0.00,,,0.00,WUHU216HW,2013-03-26 02:05:00,
2013-03-25 22:10:00,35.6,27.5,29.27,North,0,0.0,0.0,72,0.00,,,0.00,WUHU216HW,2013-03-26 02:10:00,
2013-03-25 22:16:00,35.6,27.8,29.27,North,0,0.0,0.0,73,0.00,,,0.00,WUHU216HW,2013-03-26 02:16:00,
2013-03-25 22:21:00,35.5,27.6,29.27,North,0,0.0,0.0,73,0.00,,,0.00,WUHU216HW,2013-03-26 02:21:00,
2013-03-25 22:26:00,35.5,27.6,29.27,North,0,0.0,0.0,73,0.00,,,0.00,WUHU216HW,2013-03-26 02:26:00,
2013-03-25 22:31:00,35.3,27.5,29.26,North,0,0.0,0.0,73,0.00,,,0.00,WUHU216HW,2013-03-26 02:31:00,
2013-03-25 22:36:00,35.3,27.5,29.26,North,0,0.0,0.0,73,0.00,,,0.00,WUHU216HW,2013-03-26 02:36:00,
2013-03-25 22:41:00,35.3,27.5,29.26,North,0,0.0,0.0,73,0.00,,,0.00,WUHU216HW,2013-03-26 02:41:00,
2013-03-25 22:46:00,35.1,27.3,29.26,North,0,0.0,0.0,73,0.00,,,0.00,WUHU216HW,2013-03-26 02:46:00,
2013-03-25 22:51:00,35.1,27.3,29.26,North,0,0.0,0.0,73,0.00,,,0.00,WUHU216HW,2013-03-26 02:51:00,
2013-03-25 22:57:00,35.1,27.3,29.26,North,0,0.0,0.0,73,0.00,,,0.00,WUHU216HW,2013-03-26 02:57:00,
2013-03-25 23:02:00,34.9,27.1,29.26,North,0,0.0,0.0,73,0.00,,,0.00,WUHU216HW,2013-03-26 03:02:00,
2013-03-25 23:07:00,34.9,27.1,29.26,North,0,0.0,0.0,73,0.00,,,0.00,WUHU216HW,2013-03-26 03:07:00,
2013-03-25 23:12:00,34.9,27.1,29.26,North,0,0.0,0.0,73,0.00,,,0.00,WUHU216HW,2013-03-26 03:12:00,
2013-03-25 23:17:00,34.9,27.1,29.25,North,0,0.0,0.0,73,0.00,,,0.00,WUHU216HW,2013-03-26 03:17:00,
2013-03-25 23:22:00,34.7,26.9,29.25,North,0,0.0,0.0,73,0.00,,,0.00,WUHU216HW,2013-03-26 03:22:00,
2013-03-25 23:27:00,34.7,26.9,29.25,North,0,0.0,0.0,73,0.00,,,0.00,WUHU216HW,2013-03-26 03:27:00,
2013-03-25 23:32:00,34.7,26.9,29.25,North,0,0.0,0.0,73,0.00,,,0.00,WUHU216HW,2013-03-26 03:32:00,
2013-03-25 23:38:00,34.7,26.9,29.25,North,0,0.0,0.0,73,0.00,,,0.00,WUHU216HW,2013-03-26 03:38:00,
2013-03-25 23:42:00,34.7,26.9,29.25,North,0,0.0,0.0,73,0.00,,,0.00,WUHU216HW,2013-03-26 03:42:00,
2013-03-25 23:48:00,34.6,26.7,29.25,North,0,0.0,0.0,73,0.00,,,0.00,WUHU216HW,2013-03-26 03:48:00,
2013-03-25 23:53:00,34.6,26.7,29.25,North,0,0.0,0.0,73,0.00,,,0.00,WUHU216HW,2013-03-26 03:53:00,
2013-03-25 23:58:00,34.4,26.6,29.25,North,0,0.0,0.0,73,0.00,,,0.00,WUHU216HW,2013-03-26 03:58:00,